Overview Statistics Trail Chart Weather Telemetry Raw packets
 

This is the latest recevied weather packets stored in our database for station/object OE6ATD-13. If no packets are shown the sender has not sent any weather packets the latest 10 day(s).

<< 6 7 8 9 10 11 12 >>
Time Temp. Humidity Pressure Rain* Wind** Luminosity Snow
1788591018 21.67° C 75% 1016.4 hPa 0 mm - 164 W/m² -
1788590429 21.67° C 74% 1016.3 hPa 0 mm - 171 W/m² -
1788589825 22.22° C 73% 1016 hPa 0 mm - 204 W/m² -
1788589245 21.67° C 82% 1016 hPa 0 mm - 273 W/m² -
1788588620 20° C 97% 1015.9 hPa 0 mm - 227 W/m² -
1788588016 18.33° C 99% 1015.7 hPa 0 mm - 86 W/m² -
1788587454 17.78° C 99% 1015.5 hPa 0 mm - 64 W/m² -
1788586822 17.22° C 99% 1015.5 hPa 0 mm - 53 W/m² -
1788586218 16.11° C 99% 1015.4 hPa 0 mm - 52 W/m² -
1788585629 15.56° C 99% 1015.3 hPa 0 mm - 27 W/m² -
1788585024 15.56° C 99% 1015.2 hPa 0 mm - 22 W/m² -
1788584420 16.11° C 99% 1015.2 hPa 0 mm - 16 W/m² -
1788583815 15.56° C 99% 1015 hPa 0 mm - 13 W/m² -
1788583226 15.56° C 99% 1014.8 hPa 0 mm - 5 W/m² -
1788582622 15.56° C 99% 1014.6 hPa 0 mm - 2 W/m² -
1788582018 15.56° C 99% 1014.4 hPa 0 mm - 0 W/m² -
1788581429 15.56° C 99% 1014.4 hPa 0 mm - 0 W/m² -
1788580824 15.56° C 99% 1014.3 hPa 0 mm - 0 W/m² -
1788580220 15.56° C 99% 1014.3 hPa 0 mm - 0 W/m² -
1788579616 15.56° C 99% 1014.3 hPa 0 mm - 0 W/m² -
1788579027 15.56° C 99% 1014.1 hPa 0 mm - 0 W/m² -
1788578422 15.56° C 99% 1013.9 hPa 0 mm - 0 W/m² -
1788577818 15.56° C 99% 1013.9 hPa 0 mm - 0 W/m² -
1788577229 15.56° C 98% 1013.9 hPa 0 mm - 0 W/m² -
1788576625 15.56° C 98% 1014 hPa 0 mm - 0 W/m² -

* Rain latest hour (hover to see other rain measurements)
** Current wind speed in m/s (hover to see current wind gust speed)